Location: Biltmore Gardens
(41.6070°N, 83.4666°W)
Time: 01:50:50
(UTC+00:00)

N. Korean satellite - Pass Details

Date: 14 March 2021
Orbit: 453 x 499 km, 97.2° (Epoch: 11 April)

Event Time Altitude Azimuth Distance (km) Brightness Sun altitude
Rises 09:54:06 0° 34° (NE) 2,568 11.0 -21.7°
Reaches altitude 10° 09:57:10 10° 63° (ENE) 1,690 10.4 -21.1°
Maximum altitude 09:58:54 13° 92° (E) 1,513 10.0 -20.8°
Drops below altitude 10° 10:00:38 10° 120° (ESE) 1,692 9.9 -20.5°
Sets 10:03:42 0° 149° (SSE) 2,574 10.4 -19.9°
